Location: Grand Rapids
(42.9630°N, 85.6680°W)
Time: 02:21:09
(UTC-04:00)

A-11 Canister half - Pass Details

Date: 08 June 2024
Orbit: 1524 x 1684 km, 47.3° (Epoch: 21 June)

Event Time Altitude Azimuth Distance (km) Brightness Sun altitude
Rises 20:36:14 0° 270° (W) 4,672 12.9 6.2°
Reaches altitude 10° 20:39:18 10° 273° (W) 3,690 12.5 5.7°
Maximum altitude 20:48:34 68° 356° (N) 1,633 9.5 4.2°
Drops below altitude 10° 20:58:02 10° 80° (E) 3,760 10.6 2.7°
Sets 21:01:11 0° 83° (E) 4,765 11.1 2.2°
